Torna al catalogo

COSMOS 1987

GLONASS

AttivoNavigazioneMEO
NORAD 19749·PAYLOAD·🇷🇺 Russia

Lanciato Jan 10, 1989 da Baikonur Cosmodrome

Loading…

Prossimi Passaggi (prossime 24 ore)

TLE

AggiornatoSource: Space-Track

Epoca: Sep 13, 2026, 22:04 UTC

1 19749U 89001A   26256.91989608 -.00000011  00000-0  00000+0 0  9991
2 19749  64.9918  69.2615 0004810 232.8462 306.6514  2.13073157293185

Traccia COSMOS 1987 in tempo reale con AllMySat

Download on the App Store